#timestamp,LO_Frequency,Hit,StdDev 
1459040415.8,286047000.0,N
1459040435.6,286047001.3,N
1459040455.5,286047002.2,N
1459040475.3,286047001.7,N
1459040495.1,286047000.9,N
1459040515.9,286047002.6,N
1459040535.7,286047001.3,N
1459040555.5,286047000.1,N
1459040575.4,286047002.1,N
1459040595.2,286047003.4,N
1459040615.0,286047001.8,N
1459040615.9,286047001.8,N
1459040635.8,286047001.7,N
1459040655.6,286047002.5,N
1459040675.4,286047003.8,N
1459040695.2,286047001.6,N
1459040715.1,286047002.6,N
1459040716.0,286047002.6,N
1459040735.8,286047001.5,N
1459040755.6,286047001.3,N
1459040775.5,286047002.3,N
1459040795.3,286046999.9,N
1459040815.1,286047000.9,N
1459040835.9,286046998.2,N
1459040855.7,286046999.4,N
1459040875.5,286046997.3,N
1459040895.4,286046997.8,N
1459040915.2,286046995.7,N
1459040935.0,286046998.9,N
1459040935.9,286046998.9,N
1459040955.8,286047001.4,N
1459040975.6,286047002.1,N
1459040995.4,286047000.0,N
1459041015.2,286047001.0,N
1459041035.1,286046998.6,N
1459041036.0,286046998.6,N
1459041055.8,286046997.5,N
1459041075.6,286046995.2,N
1459041095.5,286046998.6,N
1459041115.3,286046999.3,N
1459041135.1,286046995.2,N
1459041155.9,286046996.6,N
1459041175.7,286046998.5,N
1459041195.5,286046998.3,N
1459041215.4,286046999.1,N
1459041235.2,286046998.9,N
1459041255.0,286047002.5,N
1459041255.9,286047002.5,N
1459041275.8,286047001.2,N
1459041295.6,286047000.5,N
1459041315.4,286047000.2,N
1459041335.3,286047000.6,N
1459041355.1,286046999.9,N
1459041356.0,286046999.9,N
1459041375.8,286047001.0,N
1459041395.7,286047002.7,N
1459041415.5,286047001.6,N
1459041435.3,286047004.1,N
1459041455.1,286047003.2,N
1459041475.9,286047003.0,N
1459041495.7,286047007.2,Y
1459041515.5,286047003.6,P
1459041535.4,286047005.9,P
1459041555.2,286047005.5,N
1459041575.0,286047003.3,N
1459041575.9,286047003.3,N
1459041595.8,286047003.1,N
1459041615.6,286047003.8,N
1459041635.4,286047006.0,Y
1459041655.3,286046998.1,P
1459041675.1,286046994.9,N
1459041695.8,286046995.4,N
1459041715.7,286046995.2,N
1459041735.5,286046994.7,N
1459041755.3,286046991.5,N
1459041775.2,286046987.6,Y
1459041795.9,286046990.3,P
1459041815.7,286046991.4,N
1459041835.6,286046988.5,P
1459041855.4,286046991.5,N
1459041875.2,286046989.3,Y
1459041895.1,286046995.8,P
1459041896.0,286046995.8,N
1459041915.8,286046993.4,P
1459041935.6,286046994.4,Y
1459041955.5,286046999.3,P
1459041975.3,286046998.0,N
1459041995.1,286046996.5,N
1459042015.9,286046996.7,N
1459042035.7,286046996.5,N
1459042055.5,286046996.5,N
1459042075.4,286046994.9,Y
1459042095.2,286046998.6,P
1459042115.0,286047000.6,N
1459042115.9,286047000.6,N
1459042135.8,286047000.2,N
1459042155.6,286046998.1,N
1459042175.4,286047000.8,N
1459042195.3,286046998.2,N
1459042215.1,286046998.5,N
1459042216.0,286046998.5,N
1459042235.8,286047000.7,N
1459042255.6,286047002.8,N
1459042275.5,286047002.3,N
1459042295.3,286047004.0,N
1459042315.1,286047003.5,N
1459042335.9,286047003.9,N
1459042355.7,286047003.2,N
1459042375.5,286047004.2,N
1459042395.4,286047005.9,N
1459042415.2,286047007.4,N
1459042435.0,286047006.3,N
1459042435.9,286047006.3,N
1459042455.8,286047008.7,N
1459042475.6,286047009.1,N
1459042495.4,286047006.3,N
1459042515.3,286047008.7,N
1459042535.1,286047009.5,N
1459042536.0,286047009.5,N
1459042555.8,286047011.9,Y
1459042575.7,286047008.0,P
1459042595.5,286047010.0,P
1459042615.3,286047012.4,P
1459042635.2,286047007.7,N
1459042655.9,286047011.3,Y
1459042675.7,286047001.8,P
1459042695.6,286047006.0,N
1459042715.4,286047005.0,N
1459042735.2,286047006.8,N
1459042755.1,286047011.9,Y
1459042756.0,286047011.9,P
1459042775.8,286047008.5,N
1459042795.6,286047007.1,N
1459042815.5,286047005.6,N
1459042835.3,286047006.5,N
1459042855.1,286047006.4,N
1459042875.9,286047010.8,Y
1459042895.7,286046998.6,P
1459042915.5,286047000.3,N
1459042935.4,286047003.6,N
1459042955.2,286047003.0,N
1459042975.0,286047004.6,N
1459042975.9,286047004.6,N
1459042995.7,286047003.6,N
1459043015.6,286047002.9,N
1459043035.4,286047003.0,N
1459043055.2,286047007.3,Y
1459043075.1,286047002.4,P
1459043076.0,286047002.4,P
1459043095.8,286047001.9,P
1459043115.7,286047002.5,Y
1459043135.5,286046999.9,P
1459043155.3,286047000.0,N
1459043175.1,286047000.7,N
1459043195.9,286047001.1,N
1459043215.7,286047000.8,N
1459043235.5,286047002.8,Y
1459043255.4,286047000.7,P
1459043275.2,286047000.3,P
1459043295.0,286047002.6,P
1459043295.9,286047002.6,N
1459043315.8,286046999.8,N
1459043335.6,286047000.6,N
1459043355.4,286047004.2,Y
1459043375.3,286047001.8,P
1459043395.1,286047006.0,P
1459043415.8,286047005.4,N
1459043435.7,286047004.3,N
1459043455.5,286047004.0,N
1459043475.3,286047002.0,N
1459043495.2,286047000.6,N
1459043515.9,286047000.7,N
1459043535.7,286046999.5,N
1459043555.6,286046999.6,N
1459043575.4,286047000.6,N
1459043595.2,286046998.2,N
1459043615.0,286046998.0,N
1459043616.0,286046998.0,N
1459043635.8,286046999.7,N
1459043655.6,286047000.7,N
1459043675.4,286046997.0,N
1459043695.3,286046996.8,N
1459043715.1,286046999.0,N
1459043735.8,286047000.0,N
1459043755.7,286047002.4,N
1459043775.5,286047001.6,N
1459043795.3,286047003.6,N
1459043815.2,286047006.4,N
1459043835.9,286047006.9,N
1459043855.7,286047005.5,N
1459043875.6,286047006.7,N
1459043895.4,286047006.4,N
1459043915.2,286047009.2,N
1459043935.1,286047006.8,N
1459043936.0,286047006.8,N
1459043955.8,286047007.5,N
1459043975.6,286047006.3,N
1459043995.5,286047008.9,N
